Observations for Trim Market St
| Time | AQI | Temp °C | Hum % | Pres Pa | CO μg/m³ | H₂S μg/m³ | NO μg/m³ | NO₂ μg/m³ | O₃ μg/m³ | SO₂ μg/m³ | PM1 μg/m³ | PM2.5 μg/m³ | PM10 μg/m³ |
|---|---|---|---|---|---|---|---|---|---|---|---|---|---|
| Saturday 22 August 2026 | |||||||||||||
| 14:38 | 2 | 24 | 38 | 65,582 | 0 | 0 | 1.51 | 9.48 | 72.01 | 0 | 2.14 | 5.63 | 5.89 |
| 14:37 | 2 | 24 | 38 | 65,580 | 0 | 0 | 1.55 | 9.91 | 70.34 | 0 | 1.43 | 6.17 | 8.34 |
| 14:36 | 2 | 24 | 38 | 65,576 | 0 | 0 | 1.66 | 9.16 | 71.17 | 0 | 2.85 | 7.77 | 9.16 |
| 14:35 | 2 | 24 | 38 | 65,544 | 0.04 | 0 | 1.61 | 9.43 | 70.72 | 0 | 2.85 | 7.76 | 10.8 |
| 14:34 | 2 | 24 | 38 | 65,525 | 0.05 | 0 | 1.47 | 9.53 | 71.89 | 0 | 2.85 | 6.16 | 6.71 |
| 14:27 | 2 | 23.8 | 38 | 65,572 | 0.04 | 0 | 1.62 | 12.39 | 71.48 | 0 | 2.85 | 6.15 | 8.34 |
| 14:25 | 2 | 23.7 | 38 | 65,560 | 0.04 | 0 | 1.63 | 8.7 | 70.1 | 0 | 2.14 | 5.6 | 7.53 |
| 14:24 | 2 | 23.7 | 39 | 65,550 | 0.01 | 0 | 1.69 | 11.09 | 69.78 | 0 | 2.14 | 5.6 | 7.53 |
| 14:17 | 2 | 23.4 | 39 | 65,546 | 0.07 | 0 | 1.48 | 9.38 | 68.98 | 0 | 2.14 | 8.2 | 10.76 |
| 14:15 | 2 | 23.4 | 40 | 65,534 | 0.1 | 0 | 1.71 | 15.44 | 68.8 | 0 | 1.43 | 5.55 | 6.72 |
| 14:14 | 2 | 23.3 | 40 | 65,548 | 0.2 | 0 | 1.72 | 27.68 | 64.79 | 0 | 1.43 | 5.55 | 5.91 |
| 14:13 | 2 | 23.3 | 40 | 65,566 | 0.13 | 0 | 1.71 | 13.71 | 68.26 | 0 | 1.43 | 6.07 | 6.72 |
| 14:12 | 2 | 23.3 | 40 | 65,564 | 0.12 | 0 | 1.67 | 11.64 | 68.03 | 0 | 1.43 | 6.08 | 8.33 |
| 14:11 | 2 | 23.2 | 40 | 65,560 | 0.13 | 0 | 1.67 | 10.27 | 68.95 | 0 | 1.43 | 5.02 | 5.91 |
| 14:10 | 2 | 23.2 | 40 | 65,527 | 0.11 | 0 | 1.65 | 12.67 | 67.74 | 0 | 1.43 | 5.02 | 5.1 |
| 14:09 | 2 | 23.2 | 40 | 65,511 | 0.13 | 0 | 1.63 | 14.44 | 68.72 | 0 | 1.43 | 5.02 | 7.53 |
| 14:08 | 2 | 23.1 | 40 | 65,489 | 0.2 | 0 | 1.57 | 9.95 | 65.89 | 0 | 2.14 | 6.07 | 8.33 |
| 14:07 | 2 | 23.1 | 40 | 65,491 | 0.13 | 0 | 1.73 | 8.89 | 68.38 | 0 | 1.43 | 4.48 | 5.91 |
| 14:06 | 2 | 23.1 | 40 | 65,495 | 0.34 | 0 | 1.66 | 8.7 | 67.86 | 0 | 2.14 | 6.05 | 7.53 |
| 14:05 | 2 | 23.1 | 40 | 65,469 | 0.16 | 0 | 1.6 | 8.55 | 68.17 | 0 | 0.71 | 4.99 | 5.11 |